Regional Weather Roundup
Issued by NWS

Home | Current Version | Previous Version | Text Only | Print | Product List | Glossary Off
Versions: 1 2 3 4 5 6 7 8 9 10 11 12 13 14 15 16 17 18 19 20 21 22 23 24 25 26 27 28 29 30 31 32 33 34 35 36 37 38 39 40 41 42 43 44 45 46 47 48 49 50

000
ASUS43 KDTX 031610
RWRMI
MICHIGAN HOURLY REGIONAL WEATHER ROUNDUP
NATIONAL WEATHER SERVICE DETROIT/PONTIAC MI
1200 PM EDT TUE MAY 03 2016

NOTE: "FAIR" INDICATES FEW OR NO CLOUDS BELOW 12,000 FEET WITH NO
SIGNIFICANT WEATHER AND/OR OBSTRUCTION TO VISIBILITY.

MIZ047>049-052>055-059>063-066>070-074>076-081>083-031700-
SOUTHEAST LOWER MICHIGAN

CITY           SKY/WX    TMP DP  RH WIND       PRES   REMARKS
ADRIAN         SUNNY     59  35  40 NE6       29.92
ALMA           SUNNY     61  34  36 W12G18    29.89F
ANN ARBOR      MOSUNNY   60  35  39 VRB3      29.90F
BAD AXE        SUNNY     58  31  36 S6        29.89F
CARO           SUNNY     62  35  36 W7        29.89F
DETROIT CITY   SUNNY     59  39  47 CALM      29.90F
DETROIT        MOSUNNY   61  42  49 VRB3      29.91F
FLINT          SUNNY     62  33  33 VRB3      29.90F
GROSSE ILE     SUNNY     59  45  58 SE6       29.90S
HILLSDALE      MOSUNNY   58  32  37 E3        29.91F
HOWELL         SUNNY     60  33  35 NW5       29.90F

CITY           SKY/WX    TMP DP  RH WIND       PRES   REMARKS
JACKSON        SUNNY     61  34  36 VRB3      29.91F
LAMBERTVILLE   CLOUDY    59  44  58 NW3       29.92S
LANSING        SUNNY     60  38  43 SW6       29.91F
LAPEER         FAIR      60  32  35 W5        29.89F
MASON          SUNNY     59  38  45 NW7       29.91F
MONROE         MOSUNNY   57  45  62 S9        29.91S
MT. CLEMENS    SUNNY     56  42  58 E7        29.89F
PONTIAC        MOSUNNY   60  32  34 CALM      29.89F
PORT HOPE        N/A     50  39  66 E7        29.87F
PORT HURON     SUNNY     57  34  41 CALM      29.90F
TRI CITIES     SUNNY     63  36  36 SW10      29.88F
MIDLAND        FAIR      63  35  35 SW5       29.86F
TROY           SUNNY     62  32  32 NW6       29.91F
SAGINAW HB     SUNNY     61  34  36 SW12      29.88F
$$
MIZ043>046-050>051-056>058-064>065-071>073-077>080-031700-
SOUTHWEST LOWER MICHIGAN

CITY           SKY/WX    TMP DP  RH WIND       PRES   REMARKS
BATTLE CREEK   MOSUNNY   59  37  44 NW13      29.92F
BENTON HARBOR  SUNNY     55  37  50 W8        29.94F
BIG RAPIDS     SUNNY     62  29  28 W12       29.86F
COLDWATER      MOSUNNY   58  39  48 CALM      29.92F
FREMONT        FAIR      62  30  29 SW13      29.88F
HOLLAND        SUNNY     59  36  42 W8        29.93F
GRAND RAPIDS   MOSUNNY   62  38  40 W10       29.91F
IONIA          FAIR      62  34  35 SW8       29.89F
KALAMAZOO      SUNNY     61  36  39 VRB3      29.93F
LUDINGTON      SUNNY     54  38  54 SW12      29.88F
MARSHALL       MOSUNNY   61  34  35 CALM      29.91F
MOUNT PLEASANT SUNNY     63  34  34 SW10      29.87F
MUSKEGON       MOSUNNY   59  32  36 SW13      29.91F
SOUTH HAVEN    SUNNY     56  34  42 W6        29.94F
$$
MIZ016>042-031700-
NORTHERN LOWER MICHIGAN

CITY           SKY/WX    TMP DP  RH WIND       PRES   REMARKS
ALPENA         SUNNY     64  33  31 S13       29.82F
BEAVER ISLAND  CLOUDY    54  38  55 SW12G17   29.79F
BELLAIRE       SUNNY     62  32  32 SW7G16    29.81F
CADILLAC       MOSUNNY   63  34  33 SW12G18   29.83F
CHARLEVOIX     MOSUNNY   62  35  37 SW15G21   29.82F
FRANKFORT      SUNNY     54  39  57 SW6       29.85F
GAYLORD        SUNNY     62  31  31 SW17      29.81F
GRAYLING       MOSUNNY   64  34  32 SW12G17   29.82F
HARBOR SPRINGS SUNNY     59  34  39 W6        29.79F
HOUGHTON LAKE  PTSUNNY   61  33  35 SW6       29.84F
MANISTEE       SUNNY     61  36  39 W9G17     29.85F
OSCODA         SUNNY     64  35  34 S10G23    29.84F
PELLSTON       MOSUNNY   62  32  32 SW13      29.79F
ROGERS CITY    PTSUNNY   62  31  31 CALM      29.81F
TRAVERSE CITY  MOSUNNY   65  35  33 SW9G16    29.81F
$$
MIZ007>008-015-031700-
EASTERN UPPER MICHIGAN

CITY           SKY/WX    TMP DP  RH WIND       PRES   REMARKS
KINROSS          N/A     61  30  31 S8G22     29.77F
MACKINAC ISLAN PTSUNNY   54  34  46 W6G18     29.79F
NEWBERRY       PTSUNNY   56  37  48 S9        29.74F
S. S. MARIE    MOSUNNY   59  33  37 S13G21    29.76F
MUNISING         N/A     62  35  36 S8        29.69F
$$
MIZ004>006-011>014-085-031700-
CENTRAL UPPER MICHIGAN

CITY           SKY/WX    TMP DP  RH WIND       PRES   REMARKS
MANISTIQUE     CLOUDY    46  39  77 S10       29.76F
ESCANABA       PTSUNNY   63  39  42 S13       29.74F VSB 1/2
MENOMINEE      SUNNY     68  34  28 W8G22     29.77F
SAWYER-GWINN   MOSUNNY   61  32  33 SW12G18   29.73F
$$
MIZ001>003-009>011-084-031700-
WESTERN UPPER MICHIGAN

CITY           SKY/WX    TMP DP  RH WIND       PRES   REMARKS
IRON MOUNTAIN  CLOUDY    64  30  27 W12G24    29.73F
HOUGHTON       LGT RAIN  51  39  63 W17       29.67F
COPPER HARBOR    N/A     53  41  63 NW9G17    29.65S
IRONWOOD         N/A     55  37  50 W13G18    29.72S
$$

ABBREVIATIONS USED IN REMARKS
   TC - TEMPERATURE IN CELSIUS
  WCI - WIND CHILL INDEX
   HX - HEAT INDEX
  VSB - VISIBILITY




USA.gov is the U.S. government's official web portal to all federal, state and local government web resources and services.